Station HCGN7 - 8654467 - USCG Station Hatteras, NC Image indicating link to RSS feed of recent meteorological observations for station HCGN7


Conditions at HCGN7 as of
(8:48 am EDT)
1248 GMT on 04/20/2024:
     

Click on the graph icon in the table below to see a time series plot of the last five days of that observation.

5-day plot - Wind Direction Wind Direction (WDIR):WSW ( 250 deg true )
5-day plot - Wind Speed Wind Speed (WSPD): 8.9 kts
5-day plot - Wind Gust Wind Gust (GST): 11.1 kts
5-day plot - Atmospheric Pressure Atmospheric Pressure (PRES):30.01 in
5-day plot - Air Temperature Air Temperature (ATMP): 68.0 °F
5-day plot - Water Temperature Water Temperature (WTMP): 67.1 °F
5-day plot - Wind Speed at 10 Meters Wind Speed at 10 meters (WSPD10M): 9.7 kts
5-day plot - Wind Speed at 20 Meters Wind Speed at 20 meters (WSPD20M): 9.7 kts
5-day plot -  Wind Speed, Wind Gust and Atmospheric Pressure Combined plot of Wind Speed, Gust, and Air Pressure
NOS Water Level Observation Network Water Level
Previous observations
TIME
(EDT)
5-day plot - Wind Direction
WDIR
 
5-day plot - Wind Speed
WSPD
kts
5-day plot - Wind Gust
GST
kts
5-day plot - Wave Height
WVHT
ft
5-day plot - Dominant Wave Period
DPD
sec
5-day plot - Average Wave Period
APD
sec
5-day plot - Mean Wave Direction
MWD
 
5-day plot - Atmospheric Pressure
PRES
in
5-day plot - Pressure Tendency
PTDY
in
5-day plot - Air Temperature
ATMP
°F
5-day plot - Water Temperature
WTMP
°F
5-day plot - Dew Point
DEWP
°F
5-day plot - Salinity
SAL
psu
5-day plot - Visibility
VIS
nmi
5-day plot - Tide (above MLLW)
TIDE
ft
2024-04-20 08:42 am SW 8.0 11.1----30.00- 67.5 67.1----
2024-04-20 08:36 amWSW 7.0 9.9----30.00- 67.6 67.1----
2024-04-20 08:30 amWSW 5.1 6.0----30.00- 67.8 67.1----
2024-04-20 08:24 am W 4.1 5.1----29.99- 66.9 67.1----
2024-04-20 08:18 am W 2.9 5.1----30.00- 66.2 67.1----
2024-04-20 08:12 am W 5.1 6.0----30.00- 65.8 67.1----
2024-04-20 08:06 amWSW 5.1 6.0----30.00- 66.2 67.1----
2024-04-20 08:00 am W 4.1 5.1----30.00+0.02 66.0 67.1----
2024-04-20 07:54 am W 2.9 5.1----29.99- 66.2 67.1----
2024-04-20 07:48 amWSW 2.9 6.0----29.99- 66.4 67.1----
2024-04-20 07:42 am W 4.1 6.0----30.00- 65.8 67.1----
2024-04-20 07:36 am W 5.1 6.0----30.00- 65.5 67.1----
2024-04-20 07:30 amWSW 5.1 6.0----29.99- 66.2 67.1----
2024-04-20 07:24 am SW 4.1 5.1----29.99- 66.0 67.1----
2024-04-20 07:18 amSSW 2.9 5.1----29.98- 66.0 67.1----
2024-04-20 07:12 amSSW 5.1 6.0----29.98- 66.0 67.1----
2024-04-20 07:06 amSSW 5.1 7.0----29.98- 66.0 67.1----
2024-04-20 07:00 amSSW 5.1 8.9----29.98+0.00 65.8 67.1----
2024-04-20 06:54 amSSW 5.1 7.0----29.98- 65.7 67.1----
2024-04-20 06:48 amSSW 5.1 8.9----29.98- 65.7 67.1----
2024-04-20 06:42 amSSW 7.0 9.9----29.98- 65.8 67.1----
2024-04-20 06:36 amSSW 5.1 8.0----29.98- 65.7 67.1----
2024-04-20 06:30 amSSW 5.1 7.0----29.97-- 67.1----
2024-04-20 06:24 amSSW 4.1 7.0----29.97-- 67.1----
2024-04-20 06:18 amSSW 5.1 8.0----29.97- 65.8 67.1----
2024-04-20 06:12 amSSW 5.1 8.0----29.97- 66.0 67.1----
2024-04-20 06:06 amSSW 6.0 8.9----29.97- 66.0 67.1----
2024-04-20 06:00 amSSW 7.0 8.0----29.98+0.00- 67.1----
2024-04-20 05:54 amSSW 6.0 8.9----29.98-- 67.1----
2024-04-20 05:48 amSSW 6.0 8.9----29.98- 66.2 67.1----
2024-04-20 05:42 amSSW 6.0 8.0----29.98- 66.2 67.1----
2024-04-20 05:36 amSSW 6.0 8.0----29.98- 66.2 67.1----
2024-04-20 05:30 amSSW 5.1 8.9----29.97- 66.4 66.9----
2024-04-20 05:24 amSSW 6.0 8.0----29.97- 66.6 66.9----
2024-04-20 05:18 amSSW 6.0 8.9----29.97- 66.6 66.9----
2024-04-20 05:12 amSSW 7.0 8.9----29.98- 66.6 66.9----
2024-04-20 05:06 amSSW 6.0 8.9----29.98- 66.7 66.9----
2024-04-20 05:00 amSSW 7.0 8.9----29.98-0.02 67.1 66.9----
2024-04-20 04:54 amSSW 6.0 8.9----29.97- 67.1 66.9----
2024-04-20 04:48 amSSW 6.0 8.9----29.98- 67.1 66.9----
2024-04-20 04:42 amSSW 5.1 8.0----29.97- 67.3 66.9----
2024-04-20 04:36 amSSW 6.0 8.0----29.97- 67.3 66.9----
2024-04-20 04:30 amSSW 4.1 8.0----29.97-- 66.9----
2024-04-20 04:24 amSSW 2.9 5.1----29.98-- 66.9----
2024-04-20 04:18 am S 2.9 7.0----29.97- 66.9 66.9----
2024-04-20 04:12 am S 5.1 8.9----29.97- 66.9 66.9----
2024-04-20 04:06 am S 6.0 8.0----29.98- 67.1 66.9----
2024-04-20 04:00 am-------29.98-0.03- 66.9----
2024-04-20 03:54 am-------29.98-- 67.1----
2024-04-20 03:48 am S 6.0 8.9----29.98- 66.9 67.1----
2024-04-20 03:42 am S 7.0 8.9----29.98- 66.7 67.1----
2024-04-20 03:36 amSSE 6.0 8.0----29.98- 66.6 67.3----
2024-04-20 03:30 amSSE 6.0 8.9----29.98- 66.6 67.3----
2024-04-20 03:24 amSSE 6.0 8.0----29.98- 66.6 67.3----
2024-04-20 03:18 amSSE 8.0 9.9----29.98- 66.6 67.3----
2024-04-20 03:12 am S 8.0 8.9----29.98- 66.6 67.1----
2024-04-20 03:06 amSSE 7.0 8.0----29.98- 66.4 67.1----
2024-04-20 03:00 amSSE 6.0 7.0----29.98-0.04 66.2 67.1----
2024-04-20 02:54 amSSE 6.0 7.0----29.98- 65.8 67.3----
2024-04-20 02:48 amSSE 5.1 7.0----29.98- 65.5 67.3----
2024-04-20 02:42 amSSE 5.1 7.0----29.98- 65.1 67.3----
2024-04-20 02:36 amSSE 6.0 8.0----29.98- 64.9 67.3----
2024-04-20 02:30 am SE 6.0 7.0----29.98- 64.4 67.3----
2024-04-20 02:24 am SE 5.1 7.0----29.98- 64.2 67.3----
2024-04-20 02:18 am SE 5.1 7.0----29.99- 64.0 67.5----
2024-04-20 02:12 am SE 5.1 7.0----29.99- 63.5 67.5----
2024-04-20 02:06 amESE 4.1 6.0----29.99- 63.0 67.5----
2024-04-20 02:00 amESE 5.1 7.0----29.99-0.05 62.4 67.5----
2024-04-20 01:54 amESE 4.1 8.0----29.99- 62.1 67.5----
2024-04-20 01:48 amESE 5.1 8.0----29.99- 61.7 67.5----
2024-04-20 01:42 amESE 6.0 8.0----30.00- 61.5 67.5----
2024-04-20 01:36 amESE 6.0 7.0----30.00- 61.2 67.5----
2024-04-20 01:30 amESE 6.0 8.0----30.00- 61.0 67.6----
2024-04-20 01:24 amESE 7.0 8.9----30.01- 60.8 67.6----
2024-04-20 01:18 amESE 7.0 8.9----30.01- 60.6 67.6----
2024-04-20 01:12 amESE 6.0 8.9----30.01- 60.4 67.6----
2024-04-20 01:06 amESE 6.0 8.9----30.01- 60.1 67.6----
2024-04-20 01:00 amESE 7.0 9.9----30.01-0.04 59.9 67.6----
2024-04-20 12:54 amESE 7.0 9.9----30.01- 59.7 67.6----
2024-04-20 12:48 amESE 6.0 11.1----30.01- 59.7 67.6----
2024-04-20 12:42 amESE 7.0 9.9----30.02- 59.7 67.6----
2024-04-20 12:36 amESE 7.0 11.1----30.02- 59.5 67.6----
2024-04-20 12:30 amESE 8.0 12.0----30.02- 59.5 67.6----
2024-04-20 12:24 amESE 7.0 11.1----30.02- 59.5 67.6----
2024-04-20 12:18 am E 7.0 11.1----30.02- 59.5 67.6----
2024-04-20 12:12 amESE 7.0 12.0----30.02- 59.4 67.6----
2024-04-20 12:06 amESE 8.0 12.0----30.02- 59.2 67.6----
2024-04-20 12:00 amESE 7.0 9.9----30.02-0.03 59.2 67.6----
2024-04-19 11:54 pm E 8.0 12.0----30.02- 59.2 67.8----
2024-04-19 11:48 pm E 8.9 13.0----30.02- 58.8 67.8----
2024-04-19 11:42 pm E 8.0 12.0----30.03- 58.8 67.8----
2024-04-19 11:36 pm E 8.0 11.1----30.03- 58.8 67.8----
2024-04-19 11:30 pm E 6.0 9.9----30.03- 59.0 67.8----
2024-04-19 11:24 pm E 6.0 8.9----30.03- 59.2 67.8----
2024-04-19 11:18 pm E 7.0 8.9----30.03- 59.2 67.8----
2024-04-19 11:12 pm E 6.0 9.9----30.03- 59.4 67.6----
2024-04-19 11:06 pm E 5.1 8.0----30.03- 59.4 67.8----
2024-04-19 11:00 pm E 5.1 7.0----30.04+0.00 59.5 68.0----
2024-04-19 10:54 pm E 6.0 9.9----30.04- 59.7 68.0----
2024-04-19 10:48 pmENE 7.0 9.9----30.04- 59.5 68.0----
2024-04-19 10:42 pmENE 7.0 12.0----30.04- 59.7 67.8----
2024-04-19 10:36 pm E 8.9 11.1----30.04- 59.7 67.8----
2024-04-19 10:30 pmENE 7.0 12.0----30.04- 59.9 68.0----
2024-04-19 10:24 pmENE 8.0 11.1----30.04- 59.9 68.0----
2024-04-19 10:18 pmENE 8.9 13.0----30.05- 59.9 68.0----
2024-04-19 10:12 pm NE 8.9 12.0----30.05- 60.1 68.2----
2024-04-19 10:06 pm NE 7.0 11.1----30.05- 60.3 68.2----
2024-04-19 10:00 pm NE 6.0 12.0----30.05+0.03 60.3 68.4----
2024-04-19 09:54 pmENE 8.0 12.0----30.05- 60.1 68.4----
2024-04-19 09:48 pm NE 8.0 11.1----30.05- 59.9 68.5----
2024-04-19 09:42 pm NE 8.0 11.1----30.05- 59.9 68.5----
2024-04-19 09:36 pm NE 7.0 9.9----30.05- 59.9 68.5----
2024-04-19 09:30 pm NE 6.0 7.0----30.06- 60.1 68.5----
2024-04-19 09:24 pmENE 7.0 8.9----30.05- 59.9 68.5----
2024-04-19 09:18 pmENE 7.0 8.9----30.06- 59.7 68.5----
2024-04-19 09:12 pm NE 6.0 8.9----30.05- 59.7 68.5----
2024-04-19 09:06 pmENE 7.0 9.9----30.05- 59.5 68.5----
2024-04-19 09:00 pmENE 6.0 8.9----30.05+0.01 59.2 68.7----
2024-04-19 08:54 pmENE 6.0 8.0----30.05- 59.0 68.7----
2024-04-19 08:48 pmENE 6.0 8.9----30.05- 58.8 68.7----
2024-04-19 08:42 pmENE 6.0 8.9----30.05- 58.6 68.7----
2024-04-19 08:36 pmENE 6.0 8.9----30.05- 58.6 68.7----
2024-04-19 08:30 pmENE 7.0 8.9----30.04- 58.6 68.7----
2024-04-19 08:24 pm E 7.0 9.9----30.04- 59.0 68.7----
2024-04-19 08:18 pmENE 7.0 9.9----30.04- 59.2 68.9----
2024-04-19 08:12 pm NE 5.1 7.0----30.04- 59.0 68.9----
2024-04-19 08:06 pmENE 5.1 8.0----30.04- 59.0 68.7----
2024-04-19 08:00 pmENE 5.1 8.0----30.04+0.00 58.6 68.7----
2024-04-19 07:54 pmENE 5.1 7.0----30.04- 58.6 68.7----
2024-04-19 07:48 pmENE 5.1 7.0----30.04- 58.3 68.7----
2024-04-19 07:42 pmENE 5.1 7.0----30.04- 58.3 68.7----
2024-04-19 07:36 pmENE 6.0 8.0----30.04- 58.3 68.7----
2024-04-19 07:30 pmENE 5.1 7.0----30.03- 58.1 68.7----
2024-04-19 07:24 pmENE 5.1 7.0----30.03- 57.9 68.7----
2024-04-19 07:00 pm E 7.0 9.9----30.03+0.00 57.9 68.9----
2024-04-19 06:54 pm E 7.0 9.9----30.03- 58.1 68.9----
2024-04-19 06:48 pm E 7.0 9.9----30.03- 58.5 68.7----
2024-04-19 06:42 pm E 8.0 9.9----30.02- 58.5 68.7----
2024-04-19 06:36 pm E 7.0 11.1----30.02- 58.8 68.9----
2024-04-19 06:30 pm E 6.0 11.1----30.02- 59.2 68.9----
2024-04-19 06:24 pm E 8.0 9.9----30.02- 59.0 68.9----
2024-04-19 06:18 pmESE 7.0 11.1----30.03- 59.5 68.9----
2024-04-19 06:12 pm E 7.0 9.9----30.03- 59.5 68.9----
2024-04-19 06:06 pm E 6.0 8.0----30.03- 60.1 68.9----
2024-04-19 06:00 pmENE 6.0 8.9----30.04-0.01 59.7 68.9----
2024-04-19 05:54 pmENE 7.0 8.9----30.03- 59.7 68.9----
2024-04-19 05:48 pmENE 6.0 8.9----30.03- 59.9 68.9----
2024-04-19 05:42 pmENE 6.0 11.1----30.03- 59.5 68.9----
2024-04-19 05:36 pmENE 7.0 8.9----30.03- 59.4 68.7----
2024-04-19 05:30 pmENE 7.0 9.9----30.03- 59.5 68.7----
2024-04-19 05:24 pm NE 8.0 12.0----30.03- 59.4 68.7----
2024-04-19 05:18 pm NE 8.0 11.1----30.03- 59.5 68.7----
2024-04-19 05:12 pm NE 7.0 8.9----30.03- 59.7 68.7----
2024-04-19 05:06 pm E 6.0 8.9----30.03- 60.3 68.7----
2024-04-19 05:00 pm E 7.0 9.9----30.03-0.04 59.9 68.9----
2024-04-19 04:54 pmESE 7.0 11.1----30.03- 59.9 68.9----
2024-04-19 04:48 pm E 6.0 8.9----30.03- 60.4 68.9----
2024-04-19 04:42 pm E 6.0 8.9----30.03- 60.6 68.9----
2024-04-19 04:36 pm E 7.0 9.9----30.03- 60.1 68.9----
2024-04-19 04:30 pm E 6.0 8.9----30.03- 60.3 68.7----
2024-04-19 04:24 pmENE 6.0 11.1----30.03- 60.3 68.4----
2024-04-19 04:18 pm NE 7.0 11.1----30.03- 59.5 68.4----
2024-04-19 04:12 pm NE 8.0 9.9----30.03- 59.2 68.4----
2024-04-19 04:06 pm NE 7.0 9.9----30.03- 59.4 68.4----
2024-04-19 04:00 pmENE 8.0 11.1----30.03-0.05 59.2 68.4----
2024-04-19 03:54 pm NE 8.0 11.1----30.03- 59.0 68.2----
2024-04-19 03:48 pmENE 8.9 12.0----30.03- 58.6 68.4----
2024-04-19 03:42 pm NE 8.9 12.0----30.04- 58.1 68.5----
2024-04-19 03:36 pm NE 8.9 12.0----30.04- 58.1 68.5----
2024-04-19 03:30 pmENE 9.9 13.0----30.04- 58.3 68.4----
2024-04-19 03:24 pmENE 8.9 13.0----30.05- 58.5 68.4----
2024-04-19 03:18 pm NE 9.9 14.0----30.04- 58.3 68.5----
2024-04-19 03:12 pmENE 9.9 13.0----30.05- 57.9 68.4----
2024-04-19 03:06 pm NE 8.9 13.0----30.05- 58.1 68.0----
2024-04-19 03:00 pm NE 8.9 13.0----30.05-0.04 57.7 68.4----
2024-04-19 02:54 pm NE 8.0 14.0----30.06- 58.5 68.4----
2024-04-19 02:48 pm NE 9.9 15.0----30.06- 57.9 68.2----
2024-04-19 02:42 pm NE 9.9 14.0----30.06- 57.9 68.0----
2024-04-19 02:36 pmENE 12.0 15.0----30.06- 57.6 68.0----
2024-04-19 02:30 pm NE 11.1 15.0----30.06- 57.7 68.0----
2024-04-19 02:24 pm NE 8.9 15.0----30.06- 58.1 68.0----
2024-04-19 02:18 pm NE 9.9 15.0----30.06- 57.6 68.0----
2024-04-19 02:12 pm NE 12.0 15.9----30.07- 57.6 67.8----
2024-04-19 02:06 pm NE 11.1 15.9----30.07- 57.2 67.8----
2024-04-19 02:00 pm NE 12.0 15.9----30.07-0.04 57.0 67.5----
2024-04-19 01:54 pm NE 12.0 18.1----30.08- 57.2 67.5----
2024-04-19 01:48 pm NE 11.1 15.0----30.08- 57.0 67.6----
2024-04-19 01:42 pm NE 12.0 15.0----30.08- 56.8 67.6----
2024-04-19 01:36 pm NE 9.9 15.9----30.08- 57.0 67.5----
2024-04-19 01:30 pm NE 11.1 17.1----30.08- 56.8 67.5----
2024-04-19 01:24 pmNNE 11.1 15.0----30.08- 57.0 67.5----
2024-04-19 01:18 pm NE 9.9 15.9----30.08- 57.0 67.6----
2024-04-19 01:12 pm NE 8.9 15.0----30.08- 56.7 67.8----
2024-04-19 01:06 pm NE 11.1 17.1----30.08- 56.7 67.5----
2024-04-19 01:00 pm NE 11.1 17.1----30.08-0.02 56.7 67.6----
2024-04-19 12:54 pm NE 9.9 15.0----30.08- 57.0 67.6----
2024-04-19 12:48 pm NE 9.9 17.1----30.08- 57.0 67.6----
2024-04-19 12:42 pm NE 8.9 15.9----30.08- 57.2 67.5----
2024-04-19 12:36 pm NE 11.1 17.1----30.09- 56.3 67.3----
2024-04-19 12:30 pmNNE 13.0 17.1----30.09- 55.9 67.1----
2024-04-19 12:24 pm NE 12.0 17.1----30.09- 55.9 67.3----
2024-04-19 12:18 pm NE 13.0 18.1----30.09- 55.6 67.3----
2024-04-19 12:12 pm NE 13.0 18.1----30.09- 55.9 67.3----
2024-04-19 12:06 pmNNE 13.0 17.1----30.10- 55.9 67.3----
2024-04-19 12:00 pm NE 14.0 18.1----30.09+0.00 55.9 66.9----
2024-04-19 11:54 amNNE 11.1 18.1----30.10- 56.1 66.9----
2024-04-19 11:48 amNNE 13.0 17.1----30.10- 55.9 66.9----
2024-04-19 11:42 am NE 12.0 18.1----30.10- 55.8 66.9----
2024-04-19 11:36 amNNE 12.0 18.1----30.11- 55.6 66.7----
2024-04-19 11:30 amNNE 12.0 17.1----30.11- 55.6 66.9----
2024-04-19 11:24 am NE 12.0 17.1----30.11- 55.4 66.7----
2024-04-19 11:18 am NE 8.9 15.9----30.11- 55.9 66.7----
2024-04-19 11:12 am NE 11.1 15.9----30.11- 55.2 66.7----
2024-04-19 11:06 am NE 12.0 15.9----30.11- 54.7 66.7----
2024-04-19 11:00 amNNE 11.1 15.9----30.11+0.03 55.6 66.7----
2024-04-19 10:54 am NE 12.0 17.1----30.10- 55.6 66.7----
2024-04-19 10:48 am NE 13.0 15.9----30.10- 55.6 66.6----
2024-04-19 10:42 am NE 12.0 17.1----30.10- 55.4 66.4----
2024-04-19 10:36 am NE 12.0 19.0----30.10- 55.4 66.4----
2024-04-19 10:30 am NE 12.0 18.1----30.10- 55.8 66.4----
2024-04-19 10:24 am NE 14.0 18.1----30.10- 55.4 66.4----
2024-04-19 10:18 am NE 14.0 18.1----30.10- 55.4 66.7----
2024-04-19 10:12 am NE 13.0 18.1----30.10- 54.9 66.9----
2024-04-19 10:06 am NE 13.0 17.1----30.10- 55.0 66.7----
2024-04-19 10:00 am NE 9.9 17.1----30.10+0.02 55.4 66.7----
2024-04-19 09:54 am NE 11.1 15.9----30.10- 55.2 67.1----
2024-04-19 09:48 amENE 11.1 15.9----30.10- 55.4 66.6----
2024-04-19 09:42 am NE 13.0 17.1----30.10- 55.0 66.7----
2024-04-19 09:36 am NE 13.0 19.0----30.09- 54.9 67.5----
2024-04-19 09:30 am NE 11.1 17.1----30.09- 55.0 67.5----
2024-04-19 09:24 am NE 12.0 17.1----30.09- 54.9 67.5----
2024-04-19 09:18 am NE 9.9 15.9----30.09- 55.4 67.3----
2024-04-19 09:12 am NE 9.9 15.9----30.09- 55.0 66.7----
2024-04-19 09:06 am NE 9.9 14.0----30.09- 54.7 66.7----
2024-04-19 09:00 am NE 11.1 17.1----30.09+0.01 55.2 67.5----
2024-04-19 08:54 am NE 13.0 15.9----30.09- 55.0 67.6----